COSMOS 1562

Satellite information

Favourite Embed

Satellite Type and Status

PAYLOADIN ORBIT

Key statistics

Satellite COSMOS 1562 at a glance.

Uptime

15134

Days in orbit

Revolutions

≈ 12.5

Per day

Orbit

LEO

Low Earth Orbit

Inclination

74.0

Latest

Satellite identification and parameters

Extended collection of information and parameters for COSMOS 1562.

Object identification

Identified? True

Debris? False

Object name: COSMOS 1562

International designator: 1984-052D

Object number (NORAD): 15001

Object ID (CCSDS): 15001

Country: COMMONWEALTH OF INDEPENDENT STATES (CIS)

Current information (Y/N): Y

RCS size: MEDIUM

Orbital parameters

Period: 115.204 minutes

Inclination: 74.0112 deg

SMA: 7842.793 km

Apoapsis: 1475.857 km

Periapsis: 1453.459 km

RAAN: 257.9747 deg

Eccentricy: 0.00142796

Argument of periapsis: 104.0599 deg

Mean anomaly: 11.2207 deg

Mean motion: 12.49961426 rev/day

Mean motion (dot): -0.00000014 rev/day2

B* drag term: 0.000013631669 1/REarth

Two-line elements (TLE)

Creation date: Nov. 2, 2025, 5:34 p.m.

Reference frame: TEME

Reference center: EARTH

Epoch: Nov. 2, 2025, 7:38 a.m. UTC

TLE line 0: 0 COSMOS 1562

TLE line 1: 1 15001U 84052D 25306.31840444 -.00000014 00000-0 13632-4 0 9995

TLE line 2: 2 15001 74.0112 257.9747 0014280 104.0599 11.2207 12.49961426890439

Live tracking on map

Real-time ground track for satellite COSMOS 1562.

In-orbit conjunctions

A list of the most updated potential collisions computed for object COSMOS 1562.

Target Orbit TCA Probability of collision Miss distance Type
DELTA 1 DEB SSO 2025-08-13 14:31:32 0.0001713419 439.0 (m) DEBRIS

Associated space launch

Military communications satellites

COSMOS 1562 was lifted into orbit during the mission ‘Kosmos-3M | Strela-1M 281-288’, on board a Kosmos-3M space rocket.

The launch took place on May 28, 1984, 9:52 p.m. from 132/2.

For more information about the launch, click the button.

Launch to space Kosmos-3M | Strela-1M 281-288
Kosmos-3M | Strela-1M 281-288

Agency: N/A

Status: Launch Successful

Launch date: May 28, 1984, 9:52 p.m. UTC

Rocket: Kosmos-3M

Launch pad: 132/2

Location: Plesetsk Cosmodrome, Russian Federation

...

Latest news about this satellite

There are no fresh news available about this satellite. Check back as we update our databases every day.


Newsletter sign-up

Weekly statistics, charts and insights to help you stay on top of the space industry.